owner,sensor,date,latitude,longitude,vertical_datum,sea_water_practical_salinity,qcFlag 
DISL,ioos:station:DISL:DISL:1,2019-04-01T00:00:00Z,30.2513,-88.0778,2.3,18.8,11111222 
DISL,ioos:station:DISL:DISL:1,2019-04-01T00:30:00Z,30.2513,-88.0778,2.273,19.27,1111122 
DISL,ioos:station:DISL:DISL:1,2019-04-01T01:00:00Z,30.2513,-88.0778,2.3,19.2,11111222 
DISL,ioos:station:DISL:DISL:1,2019-04-01T01:30:00Z,30.2513,-88.0778,2.302,18.93,1111122 
DISL,ioos:station:DISL:DISL:1,2019-04-01T02:00:00Z,30.2513,-88.0778,2.3,18.8,11111222 
DISL,ioos:station:DISL:DISL:1,2019-04-01T02:30:00Z,30.2513,-88.0778,2.285,18.77,1111122 
DISL,ioos:station:DISL:DISL:1,2019-04-01T03:00:00Z,30.2513,-88.0778,2.2,18.6,11111222 
DISL,ioos:station:DISL:DISL:1,2019-04-01T03:30:00Z,30.2513,-88.0778,2.198,16.5,1111122 
DISL,ioos:station:DISL:DISL:1,2019-04-01T04:00:00Z,30.2513,-88.0778,2.2,15.8,11111222 
DISL,ioos:station:DISL:DISL:1,2019-04-01T04:30:00Z,30.2513,-88.0778,2.2,18.9,11111222 
DISL,ioos:station:DISL:DISL:1,2019-04-01T05:00:00Z,30.2513,-88.0778,2.191,18.48,1111122 
DISL,ioos:station:DISL:DISL:1,2019-04-01T05:30:00Z,30.2513,-88.0778,2.208,13.8,1111122 
DISL,ioos:station:DISL:DISL:1,2019-04-01T06:00:00Z,30.2513,-88.0778,2.2,12.7,11111222 
DISL,ioos:station:DISL:DISL:1,2019-04-01T06:30:00Z,30.2513,-88.0778,2.1,12.0,11111222 
DISL,ioos:station:DISL:DISL:1,2019-04-01T07:00:00Z,30.2513,-88.0778,2.146,11.89,1111122 
DISL,ioos:station:DISL:DISL:1,2019-04-01T07:30:00Z,30.2513,-88.0778,2.106,11.8,1111122 
DISL,ioos:station:DISL:DISL:1,2019-04-01T08:00:00Z,30.2513,-88.0778,2.1,11.8,11111222 
DISL,ioos:station:DISL:DISL:1,2019-04-01T08:30:00Z,30.2513,-88.0778,2.1,11.9,11111222 
DISL,ioos:station:DISL:DISL:1,2019-04-01T09:00:00Z,30.2513,-88.0778,2.057,11.99,1111122 
DISL,ioos:station:DISL:DISL:1,2019-04-01T09:30:00Z,30.2513,-88.0778,2.1,12.2,11111222 
DISL,ioos:station:DISL:DISL:1,2019-04-01T10:00:00Z,30.2513,-88.0778,2.011,12.46,1111122 
DISL,ioos:station:DISL:DISL:1,2019-04-01T10:30:00Z,30.2513,-88.0778,2.0,13.5,11111222 
DISL,ioos:station:DISL:DISL:1,2019-04-01T11:00:00Z,30.2513,-88.0778,2.061,14.08,1111122 
DISL,ioos:station:DISL:DISL:1,2019-04-01T11:30:00Z,30.2513,-88.0778,2.1,14.2,11111222 
DISL,ioos:station:DISL:DISL:1,2019-04-01T12:00:00Z,30.2513,-88.0778,2.03,14.29,1111122 
DISL,ioos:station:DISL:DISL:1,2019-04-01T12:30:00Z,30.2513,-88.0778,2.0,14.2,11111222 
DISL,ioos:station:DISL:DISL:1,2019-04-01T13:00:00Z,30.2513,-88.0778,2.027,14.11,1111122 
DISL,ioos:station:DISL:DISL:1,2019-04-01T13:30:00Z,30.2513,-88.0778,2.0,14.1,11111222 
DISL,ioos:station:DISL:DISL:1,2019-04-01T14:00:00Z,30.2513,-88.0778,2.049,14.04,1111122 
DISL,ioos:station:DISL:DISL:1,2019-04-01T14:30:00Z,30.2513,-88.0778,2.1,14.0,11111222 
DISL,ioos:station:DISL:DISL:1,2019-04-01T15:00:00Z,30.2513,-88.0778,2.052,14.16,1111122 
DISL,ioos:station:DISL:DISL:1,2019-04-01T15:30:00Z,30.2513,-88.0778,2.1,14.7,11111222 
DISL,ioos:station:DISL:DISL:1,2019-04-01T16:00:00Z,30.2513,-88.0778,2.056,17.57,1111122 
DISL,ioos:station:DISL:DISL:1,2019-04-01T16:30:00Z,30.2513,-88.0778,2.1,18.7,11111222 
DISL,ioos:station:DISL:DISL:1,2019-04-01T17:00:00Z,30.2513,-88.0778,2.077,18.89,1111122 
DISL,ioos:station:DISL:DISL:1,2019-04-01T17:30:00Z,30.2513,-88.0778,2.1,16.0,11111222 
DISL,ioos:station:DISL:DISL:1,2019-04-01T18:00:00Z,30.2513,-88.0778,2.123,14.18,1111122 
DISL,ioos:station:DISL:DISL:1,2019-04-01T18:30:00Z,30.2513,-88.0778,2.1,14.1,11111222 
DISL,ioos:station:DISL:DISL:1,2019-04-01T19:00:00Z,30.2513,-88.0778,2.181,18.9,1111122 
DISL,ioos:station:DISL:DISL:1,2019-04-01T19:30:00Z,30.2513,-88.0778,2.2,24.3,11111222 
DISL,ioos:station:DISL:DISL:1,2019-04-01T20:00:00Z,30.2513,-88.0778,2.178,26.06,1111122 
DISL,ioos:station:DISL:DISL:1,2019-04-01T20:30:00Z,30.2513,-88.0778,2.2,30.0,11111222 
DISL,ioos:station:DISL:DISL:1,2019-04-01T21:00:00Z,30.2513,-88.0778,2.218,30.69,1111122 
DISL,ioos:station:DISL:DISL:1,2019-04-01T21:30:00Z,30.2513,-88.0778,2.2,32.2,11111222 
DISL,ioos:station:DISL:DISL:1,2019-04-01T22:00:00Z,30.2513,-88.0778,2.228,32.94,1111122 
DISL,ioos:station:DISL:DISL:1,2019-04-01T22:30:00Z,30.2513,-88.0778,2.2,32.7,11111222 
DISL,ioos:station:DISL:DISL:1,2019-04-01T23:00:00Z,30.2513,-88.0778,2.26,33.07,1111122 
DISL,ioos:station:DISL:DISL:1,2019-04-01T23:30:00Z,30.2513,-88.0778,2.292,33.01,1111122 
DISL,ioos:station:DISL:DISL:1,2019-04-02T00:00:00Z,30.2513,-88.0778,2.3,26.9,11111222 
DISL,ioos:station:DISL:DISL:1,2019-04-02T00:30:00Z,30.2513,-88.0778,2.3,30.67,1111122 
DISL,ioos:station:DISL:DISL:1,2019-04-02T01:00:00Z,30.2513,-88.0778,2.3,32.9,11111222 
DISL,ioos:station:DISL:DISL:1,2019-04-02T01:30:00Z,30.2513,-88.0778,2.325,18.23,1111122 
DISL,ioos:station:DISL:DISL:1,2019-04-02T02:00:00Z,30.2513,-88.0778,2.4,16.1,11111222 
DISL,ioos:station:DISL:DISL:1,2019-04-02T02:30:00Z,30.2513,-88.0778,2.362,16.01,1111122 
DISL,ioos:station:DISL:DISL:1,2019-04-02T03:00:00Z,30.2513,-88.0778,2.3,15.8,11111222 
DISL,ioos:station:DISL:DISL:1,2019-04-02T03:30:00Z,30.2513,-88.0778,2.34,16.74,1111122 
DISL,ioos:station:DISL:DISL:1,2019-04-02T04:00:00Z,30.2513,-88.0778,2.3,16.3,11111222 
DISL,ioos:station:DISL:DISL:1,2019-04-02T04:30:00Z,30.2513,-88.0778,2.3,15.7,11111222 
DISL,ioos:station:DISL:DISL:1,2019-04-02T05:00:00Z,30.2513,-88.0778,2.248,15.58,1111122 
DISL,ioos:station:DISL:DISL:1,2019-04-02T05:30:00Z,30.2513,-88.0778,2.2,15.5,11111222 
DISL,ioos:station:DISL:DISL:1,2019-04-02T06:00:00Z,30.2513,-88.0778,2.193,15.4,1111122 
DISL,ioos:station:DISL:DISL:1,2019-04-02T06:30:00Z,30.2513,-88.0778,2.2,15.3,11111222 
DISL,ioos:station:DISL:DISL:1,2019-04-02T07:00:00Z,30.2513,-88.0778,2.185,15.2,1111122 
DISL,ioos:station:DISL:DISL:1,2019-04-02T07:30:00Z,30.2513,-88.0778,2.1,15.1,11111222 
DISL,ioos:station:DISL:DISL:1,2019-04-02T08:00:00Z,30.2513,-88.0778,2.134,12.99,1111122 
DISL,ioos:station:DISL:DISL:1,2019-04-02T08:30:00Z,30.2513,-88.0778,2.1,12.2,11111222 
DISL,ioos:station:DISL:DISL:1,2019-04-02T09:00:00Z,30.2513,-88.0778,2.143,10.65,1111122 
DISL,ioos:station:DISL:DISL:1,2019-04-02T09:30:00Z,30.2513,-88.0778,2.11,10.1,1111122 
DISL,ioos:station:DISL:DISL:1,2019-04-02T10:00:00Z,30.2513,-88.0778,2.1,11.0,11111222 
DISL,ioos:station:DISL:DISL:1,2019-04-02T10:30:00Z,30.2513,-88.0778,2.1,11.6,11111222 
DISL,ioos:station:DISL:DISL:1,2019-04-02T11:00:00Z,30.2513,-88.0778,2.065,10.82,1111122 
DISL,ioos:station:DISL:DISL:1,2019-04-02T11:30:00Z,30.2513,-88.0778,2.1,9.7,11111222 
DISL,ioos:station:DISL:DISL:1,2019-04-02T12:00:00Z,30.2513,-88.0778,2.081,8.94,1111122 
DISL,ioos:station:DISL:DISL:1,2019-04-02T12:30:00Z,30.2513,-88.0778,2.0,9.1,11111222 
DISL,ioos:station:DISL:DISL:1,2019-04-02T13:00:00Z,30.2513,-88.0778,2.05,9.15,1111122 
DISL,ioos:station:DISL:DISL:1,2019-04-02T13:30:00Z,30.2513,-88.0778,2.1,9.3,11111222 
DISL,ioos:station:DISL:DISL:1,2019-04-02T14:00:00Z,30.2513,-88.0778,2.097,9.26,1111122 
DISL,ioos:station:DISL:DISL:1,2019-04-02T14:30:00Z,30.2513,-88.0778,2.1,9.8,11111222 
DISL,ioos:station:DISL:DISL:1,2019-04-02T15:00:00Z,30.2513,-88.0778,2.092,10.09,1111122 
DISL,ioos:station:DISL:DISL:1,2019-04-02T15:30:00Z,30.2513,-88.0778,2.1,17.8,11111222 
DISL,ioos:station:DISL:DISL:1,2019-04-02T16:00:00Z,30.2513,-88.0778,2.104,18.99,1111122 
DISL,ioos:station:DISL:DISL:1,2019-04-02T16:30:00Z,30.2513,-88.0778,2.1,19.4,11111222 
DISL,ioos:station:DISL:DISL:1,2019-04-02T17:00:00Z,30.2513,-88.0778,2.119,18.89,1111122 
DISL,ioos:station:DISL:DISL:1,2019-04-02T17:30:00Z,30.2513,-88.0778,2.1,16.5,11111222 
DISL,ioos:station:DISL:DISL:1,2019-04-02T18:00:00Z,30.2513,-88.0778,2.13,18.0,1111122 
DISL,ioos:station:DISL:DISL:1,2019-04-02T18:30:00Z,30.2513,-88.0778,2.1,17.9,11111222 
DISL,ioos:station:DISL:DISL:1,2019-04-02T19:00:00Z,30.2513,-88.0778,2.148,18.31,1111122 
DISL,ioos:station:DISL:DISL:1,2019-04-02T19:30:00Z,30.2513,-88.0778,2.2,16.5,11111222 
DISL,ioos:station:DISL:DISL:1,2019-04-02T20:00:00Z,30.2513,-88.0778,2.153,16.13,1111122 
DISL,ioos:station:DISL:DISL:1,2019-04-02T20:30:00Z,30.2513,-88.0778,2.2,15.1,11111222 
DISL,ioos:station:DISL:DISL:1,2019-04-02T21:00:00Z,30.2513,-88.0778,2.176,18.41,1111122 
DISL,ioos:station:DISL:DISL:1,2019-04-02T21:30:00Z,30.2513,-88.0778,2.2,16.0,11111222 
DISL,ioos:station:DISL:DISL:1,2019-04-02T22:00:00Z,30.2513,-88.0778,2.193,20.4,1111122 
DISL,ioos:station:DISL:DISL:1,2019-04-02T22:30:00Z,30.2513,-88.0778,2.2,22.0,11111222 
DISL,ioos:station:DISL:DISL:1,2019-04-02T23:00:00Z,30.2513,-88.0778,2.205,23.09,1111122 
DISL,ioos:station:DISL:DISL:1,2019-04-02T23:30:00Z,30.2513,-88.0778,2.216,23.74,1111122 
DISL,ioos:station:DISL:DISL:1,2019-04-03T00:00:00Z,30.2513,-88.0778,2.2,26.7,11111222 
DISL,ioos:station:DISL:DISL:1,2019-04-03T00:30:00Z,30.2513,-88.0778,2.224,26.42,1111122 
DISL,ioos:station:DISL:DISL:1,2019-04-03T01:00:00Z,30.2513,-88.0778,2.2,18.0,11111222 
DISL,ioos:station:DISL:DISL:1,2019-04-03T01:30:00Z,30.2513,-88.0778,2.242,18.75,1111122 
DISL,ioos:station:DISL:DISL:1,2019-04-03T02:00:00Z,30.2513,-88.0778,2.3,13.7,11111222 
DISL,ioos:station:DISL:DISL:1,2019-04-03T02:30:00Z,30.2513,-88.0778,2.24,13.25,1111122 
DISL,ioos:station:DISL:DISL:1,2019-04-03T03:00:00Z,30.2513,-88.0778,2.2,13.2,11111222 
DISL,ioos:station:DISL:DISL:1,2019-04-03T03:30:00Z,30.2513,-88.0778,2.244,13.17,1111122 
DISL,ioos:station:DISL:DISL:1,2019-04-03T04:00:00Z,30.2513,-88.0778,2.3,13.2,11111222 
DISL,ioos:station:DISL:DISL:1,2019-04-03T04:30:00Z,30.2513,-88.0778,2.234,13.19,1111122 
DISL,ioos:station:DISL:DISL:1,2019-04-03T05:00:00Z,30.2513,-88.0778,2.2,13.1,11111222 
DISL,ioos:station:DISL:DISL:1,2019-04-03T05:30:00Z,30.2513,-88.0778,2.196,13.13,1111122 
DISL,ioos:station:DISL:DISL:1,2019-04-03T06:00:00Z,30.2513,-88.0778,2.2,13.0,11111222 
DISL,ioos:station:DISL:DISL:1,2019-04-03T06:30:00Z,30.2513,-88.0778,2.154,13.06,1111122 
DISL,ioos:station:DISL:DISL:1,2019-04-03T07:00:00Z,30.2513,-88.0778,2.2,13.0,11111222 
DISL,ioos:station:DISL:DISL:1,2019-04-03T07:30:00Z,30.2513,-88.0778,2.134,12.26,1111122 
DISL,ioos:station:DISL:DISL:1,2019-04-03T08:00:00Z,30.2513,-88.0778,2.1,11.1,11111222 
DISL,ioos:station:DISL:DISL:1,2019-04-03T08:30:00Z,30.2513,-88.0778,2.11,11.21,1111122 
DISL,ioos:station:DISL:DISL:1,2019-04-03T09:00:00Z,30.2513,-88.0778,2.1,11.3,11111222 
DISL,ioos:station:DISL:DISL:1,2019-04-03T09:30:00Z,30.2513,-88.0778,2.079,11.38,1111122 
DISL,ioos:station:DISL:DISL:1,2019-04-03T10:00:00Z,30.2513,-88.0778,2.1,11.6,11111222 
DISL,ioos:station:DISL:DISL:1,2019-04-03T10:30:00Z,30.2513,-88.0778,2.1,11.8,11111222 
DISL,ioos:station:DISL:DISL:1,2019-04-03T11:00:00Z,30.2513,-88.0778,2.056,11.88,1111122 
DISL,ioos:station:DISL:DISL:1,2019-04-03T11:30:00Z,30.2513,-88.0778,2.1,11.8,11111222 
DISL,ioos:station:DISL:DISL:1,2019-04-03T12:00:00Z,30.2513,-88.0778,2.062,11.77,1111122 
DISL,ioos:station:DISL:DISL:1,2019-04-03T12:30:00Z,30.2513,-88.0778,2.1,11.7,11111222 
DISL,ioos:station:DISL:DISL:1,2019-04-03T13:00:00Z,30.2513,-88.0778,2.063,11.77,1111122 
DISL,ioos:station:DISL:DISL:1,2019-04-03T13:30:00Z,30.2513,-88.0778,2.1,11.9,11111222 
DISL,ioos:station:DISL:DISL:1,2019-04-03T14:00:00Z,30.2513,-88.0778,2.06,11.9,1111122 
DISL,ioos:station:DISL:DISL:1,2019-04-03T14:30:00Z,30.2513,-88.0778,2.1,11.9,11111222 
DISL,ioos:station:DISL:DISL:1,2019-04-03T15:00:00Z,30.2513,-88.0778,2.061,11.94,1111122 
DISL,ioos:station:DISL:DISL:1,2019-04-03T15:30:00Z,30.2513,-88.0778,2.1,12.2,11111222 
DISL,ioos:station:DISL:DISL:1,2019-04-03T16:00:00Z,30.2513,-88.0778,2.08,13.31,1111122 
DISL,ioos:station:DISL:DISL:1,2019-04-03T16:30:00Z,30.2513,-88.0778,2.1,14.7,11111222 
DISL,ioos:station:DISL:DISL:1,2019-04-03T17:00:00Z,30.2513,-88.0778,2.103,15.41,1111122 
DISL,ioos:station:DISL:DISL:1,2019-04-03T17:30:00Z,30.2513,-88.0778,2.1,17.4,11111222 
DISL,ioos:station:DISL:DISL:1,2019-04-03T18:00:00Z,30.2513,-88.0778,2.111,20.09,1111122 
DISL,ioos:station:DISL:DISL:1,2019-04-03T18:30:00Z,30.2513,-88.0778,2.1,21.8,11111222 
DISL,ioos:station:DISL:DISL:1,2019-04-03T19:00:00Z,30.2513,-88.0778,2.114,15.73,1111122 
DISL,ioos:station:DISL:DISL:1,2019-04-03T19:30:00Z,30.2513,-88.0778,2.1,14.7,11111222 
DISL,ioos:station:DISL:DISL:1,2019-04-03T20:00:00Z,30.2513,-88.0778,2.111,12.19,1111122 
DISL,ioos:station:DISL:DISL:1,2019-04-03T20:30:00Z,30.2513,-88.0778,2.1,12.4,11111222 
DISL,ioos:station:DISL:DISL:1,2019-04-03T21:00:00Z,30.2513,-88.0778,2.11,12.3,1111122 
DISL,ioos:station:DISL:DISL:1,2019-04-03T21:30:00Z,30.2513,-88.0778,2.1,12.3,11111222 
DISL,ioos:station:DISL:DISL:1,2019-04-03T22:00:00Z,30.2513,-88.0778,2.114,12.01,1111122 
DISL,ioos:station:DISL:DISL:1,2019-04-03T22:30:00Z,30.2513,-88.0778,2.1,12.2,11111222 
DISL,ioos:station:DISL:DISL:1,2019-04-03T23:00:00Z,30.2513,-88.0778,2.142,11.88,1111122 
DISL,ioos:station:DISL:DISL:1,2019-04-03T23:30:00Z,30.2513,-88.0778,2.16,12.06,1111122 
DISL,ioos:station:DISL:DISL:1,2019-04-04T00:00:00Z,30.2513,-88.0778,2.1,17.8,11111222 
DISL,ioos:station:DISL:DISL:1,2019-04-04T00:30:00Z,30.2513,-88.0778,2.159,18.39,1111122 
DISL,ioos:station:DISL:DISL:1,2019-04-04T01:00:00Z,30.2513,-88.0778,2.2,27.0,11111222 
DISL,ioos:station:DISL:DISL:1,2019-04-04T01:30:00Z,30.2513,-88.0778,2.156,28.04,1111122 
DISL,ioos:station:DISL:DISL:1,2019-04-04T02:00:00Z,30.2513,-88.0778,2.2,28.9,11111222 
DISL,ioos:station:DISL:DISL:1,2019-04-04T02:30:00Z,30.2513,-88.0778,2.167,29.12,1111122 
DISL,ioos:station:DISL:DISL:1,2019-04-04T03:00:00Z,30.2513,-88.0778,2.2,28.5,11111222 
DISL,ioos:station:DISL:DISL:1,2019-04-04T03:30:00Z,30.2513,-88.0778,2.194,29.28,1111122 
DISL,ioos:station:DISL:DISL:1,2019-04-04T04:00:00Z,30.2513,-88.0778,2.2,29.6,11111222 
DISL,ioos:station:DISL:DISL:1,2019-04-04T04:30:00Z,30.2513,-88.0778,2.189,29.2,1111122 
DISL,ioos:station:DISL:DISL:1,2019-04-04T05:00:00Z,30.2513,-88.0778,2.2,28.4,11111222 
DISL,ioos:station:DISL:DISL:1,2019-04-04T05:30:00Z,30.2513,-88.0778,2.225,24.42,1111122 
DISL,ioos:station:DISL:DISL:1,2019-04-04T06:00:00Z,30.2513,-88.0778,2.2,23.7,11111222 
DISL,ioos:station:DISL:DISL:1,2019-04-04T06:30:00Z,30.2513,-88.0778,2.217,21.09,1111122 
DISL,ioos:station:DISL:DISL:1,2019-04-04T07:00:00Z,30.2513,-88.0778,2.2,19.9,11111222 
DISL,ioos:station:DISL:DISL:1,2019-04-04T07:30:00Z,30.2513,-88.0778,2.174,18.3,1111122 
DISL,ioos:station:DISL:DISL:1,2019-04-04T08:00:00Z,30.2513,-88.0778,2.2,17.5,11111222 
DISL,ioos:station:DISL:DISL:1,2019-04-04T08:30:00Z,30.2513,-88.0778,2.158,15.81,1111122 
DISL,ioos:station:DISL:DISL:1,2019-04-04T09:00:00Z,30.2513,-88.0778,2.2,15.1,11111222 
DISL,ioos:station:DISL:DISL:1,2019-04-04T09:30:00Z,30.2513,-88.0778,2.122,15.37,1111122 
DISL,ioos:station:DISL:DISL:1,2019-04-04T10:00:00Z,30.2513,-88.0778,2.1,15.6,11111222 
DISL,ioos:station:DISL:DISL:1,2019-04-04T10:30:00Z,30.2513,-88.0778,2.138,15.13,1111122 
DISL,ioos:station:DISL:DISL:1,2019-04-04T11:00:00Z,30.2513,-88.0778,2.1,12.9,11111222 
DISL,ioos:station:DISL:DISL:1,2019-04-04T11:30:00Z,30.2513,-88.0778,2.112,13.74,1111122 
DISL,ioos:station:DISL:DISL:1,2019-04-04T12:00:00Z,30.2513,-88.0778,2.1,13.4,11111222 
DISL,ioos:station:DISL:DISL:1,2019-04-04T12:30:00Z,30.2513,-88.0778,2.136,13.46,1111122 
DISL,ioos:station:DISL:DISL:1,2019-04-04T13:00:00Z,30.2513,-88.0778,2.1,13.3,11111222 
DISL,ioos:station:DISL:DISL:1,2019-04-04T13:30:00Z,30.2513,-88.0778,2.2,13.7,11111222 
DISL,ioos:station:DISL:DISL:1,2019-04-04T14:00:00Z,30.2513,-88.0778,2.11,15.19,1111122 
DISL,ioos:station:DISL:DISL:1,2019-04-04T14:30:00Z,30.2513,-88.0778,2.1,17.8,11111222 
DISL,ioos:station:DISL:DISL:1,2019-04-04T15:00:00Z,30.2513,-88.0778,2.14,17.87,1111122 
DISL,ioos:station:DISL:DISL:1,2019-04-04T15:30:00Z,30.2513,-88.0778,2.154,17.43,1111122 
DISL,ioos:station:DISL:DISL:1,2019-04-04T16:00:00Z,30.2513,-88.0778,2.2,16.6,11111222 
DISL,ioos:station:DISL:DISL:1,2019-04-04T16:30:00Z,30.2513,-88.0778,2.154,13.9,1111122 
DISL,ioos:station:DISL:DISL:1,2019-04-04T17:00:00Z,30.2513,-88.0778,2.1,13.6,11111222 
DISL,ioos:station:DISL:DISL:1,2019-04-04T17:30:00Z,30.2513,-88.0778,2.3,13.7,11111222 
DISL,ioos:station:DISL:DISL:1,2019-04-04T18:00:00Z,30.2513,-88.0778,2.24,14.09,1111122 
DISL,ioos:station:DISL:DISL:1,2019-04-04T18:30:00Z,30.2513,-88.0778,2.2,14.0,11111222 
DISL,ioos:station:DISL:DISL:1,2019-04-04T19:00:00Z,30.2513,-88.0778,2.186,13.96,1111122 
DISL,ioos:station:DISL:DISL:1,2019-04-04T19:30:00Z,30.2513,-88.0778,2.2,13.7,11111222 
DISL,ioos:station:DISL:DISL:1,2019-04-04T20:00:00Z,30.2513,-88.0778,2.145,13.67,1111122 
DISL,ioos:station:DISL:DISL:1,2019-04-04T20:30:00Z,30.2513,-88.0778,2.2,12.3,11111222 
DISL,ioos:station:DISL:DISL:1,2019-04-04T21:00:00Z,30.2513,-88.0778,2.156,12.18,1111122 
DISL,ioos:station:DISL:DISL:1,2019-04-04T21:30:00Z,30.2513,-88.0778,2.1,12.2,11111222 
DISL,ioos:station:DISL:DISL:1,2019-04-04T22:00:00Z,30.2513,-88.0778,2.19,12.15,1111122 
DISL,ioos:station:DISL:DISL:1,2019-04-04T22:30:00Z,30.2513,-88.0778,2.2,12.1,11111222 
DISL,ioos:station:DISL:DISL:1,2019-04-04T23:00:00Z,30.2513,-88.0778,2.117,12.43,1111122 
DISL,ioos:station:DISL:DISL:1,2019-04-04T23:30:00Z,30.2513,-88.0778,2.089,12.58,1111122 
DISL,ioos:station:DISL:DISL:1,2019-04-05T00:00:00Z,30.2513,-88.0778,2.1,12.7,11111222 
DISL,ioos:station:DISL:DISL:1,2019-04-05T00:30:00Z,30.2513,-88.0778,2.124,12.55,1111122 
DISL,ioos:station:DISL:DISL:1,2019-04-05T01:00:00Z,30.2513,-88.0778,2.1,15.1,11111222 
DISL,ioos:station:DISL:DISL:1,2019-04-05T01:30:00Z,30.2513,-88.0778,2.154,21.11,1111122 
DISL,ioos:station:DISL:DISL:1,2019-04-05T02:00:00Z,30.2513,-88.0778,2.2,20.6,11111222 
DISL,ioos:station:DISL:DISL:1,2019-04-05T02:30:00Z,30.2513,-88.0778,2.234,19.98,1111122 
DISL,ioos:station:DISL:DISL:1,2019-04-05T03:00:00Z,30.2513,-88.0778,2.2,15.6,11111222 
DISL,ioos:station:DISL:DISL:1,2019-04-05T03:30:00Z,30.2513,-88.0778,2.251,13.0,1111122 
DISL,ioos:station:DISL:DISL:1,2019-04-05T04:00:00Z,30.2513,-88.0778,2.3,12.7,11111222 
DISL,ioos:station:DISL:DISL:1,2019-04-05T04:30:00Z,30.2513,-88.0778,2.282,12.41,1111122 
DISL,ioos:station:DISL:DISL:1,2019-04-05T05:00:00Z,30.2513,-88.0778,2.3,12.4,11111222 
DISL,ioos:station:DISL:DISL:1,2019-04-05T05:30:00Z,30.2513,-88.0778,2.285,12.37,1111122 
DISL,ioos:station:DISL:DISL:1,2019-04-05T06:00:00Z,30.2513,-88.0778,2.3,21.3,11111222 
DISL,ioos:station:DISL:DISL:1,2019-04-05T06:30:00Z,30.2513,-88.0778,2.285,27.76,1111122 
DISL,ioos:station:DISL:DISL:1,2019-04-05T07:00:00Z,30.2513,-88.0778,2.3,26.7,11111222 
DISL,ioos:station:DISL:DISL:1,2019-04-05T07:30:00Z,30.2513,-88.0778,2.293,13.11,1111122 
DISL,ioos:station:DISL:DISL:1,2019-04-05T08:00:00Z,30.2513,-88.0778,2.3,26.3,11111222 
DISL,ioos:station:DISL:DISL:1,2019-04-05T08:30:00Z,30.2513,-88.0778,2.282,19.02,1111122 
DISL,ioos:station:DISL:DISL:1,2019-04-05T09:00:00Z,30.2513,-88.0778,2.3,19.5,11111222 
DISL,ioos:station:DISL:DISL:1,2019-04-05T09:30:00Z,30.2513,-88.0778,2.268,17.98,1111122 
DISL,ioos:station:DISL:DISL:1,2019-04-05T10:00:00Z,30.2513,-88.0778,2.3,15.8,11111222 
DISL,ioos:station:DISL:DISL:1,2019-04-05T10:30:00Z,30.2513,-88.0778,2.261,15.43,1111122 
DISL,ioos:station:DISL:DISL:1,2019-04-05T11:00:00Z,30.2513,-88.0778,2.3,15.7,11111222 
DISL,ioos:station:DISL:DISL:1,2019-04-05T11:30:00Z,30.2513,-88.0778,2.28,14.29,1111122 
DISL,ioos:station:DISL:DISL:1,2019-04-05T12:00:00Z,30.2513,-88.0778,2.3,13.6,11111222 
DISL,ioos:station:DISL:DISL:1,2019-04-05T12:30:00Z,30.2513,-88.0778,2.299,12.4,1111122 
DISL,ioos:station:DISL:DISL:1,2019-04-05T13:00:00Z,30.2513,-88.0778,2.3,12.3,11111222 
DISL,ioos:station:DISL:DISL:1,2019-04-05T13:30:00Z,30.2513,-88.0778,2.3,22.1,11111222 
DISL,ioos:station:DISL:DISL:1,2019-04-05T14:00:00Z,30.2513,-88.0778,2.307,18.6,1111122 
DISL,ioos:station:DISL:DISL:1,2019-04-05T14:30:00Z,30.2513,-88.0778,2.3,23.3,11111222 
DISL,ioos:station:DISL:DISL:1,2019-04-05T15:00:00Z,30.2513,-88.0778,2.277,22.73,1111122 
DISL,ioos:station:DISL:DISL:1,2019-04-05T15:30:00Z,30.2513,-88.0778,2.288,22.46,1111122 
DISL,ioos:station:DISL:DISL:1,2019-04-05T16:00:00Z,30.2513,-88.0778,2.3,18.4,11111222 
DISL,ioos:station:DISL:DISL:1,2019-04-05T16:30:00Z,30.2513,-88.0778,2.3,20.5,11111222 
DISL,ioos:station:DISL:DISL:1,2019-04-05T17:00:00Z,30.2513,-88.0778,2.279,18.09,1111122 
DISL,ioos:station:DISL:DISL:1,2019-04-05T17:30:00Z,30.2513,-88.0778,2.3,15.6,11111222 
DISL,ioos:station:DISL:DISL:1,2019-04-05T18:00:00Z,30.2513,-88.0778,2.301,15.43,1111122 
DISL,ioos:station:DISL:DISL:1,2019-04-05T18:30:00Z,30.2513,-88.0778,2.3,15.1,11111222 
DISL,ioos:station:DISL:DISL:1,2019-04-05T19:00:00Z,30.2513,-88.0778,2.279,15.33,1111122 
DISL,ioos:station:DISL:DISL:1,2019-04-05T19:30:00Z,30.2513,-88.0778,2.3,14.7,11111222 
DISL,ioos:station:DISL:DISL:1,2019-04-05T20:00:00Z,30.2513,-88.0778,2.24,14.66,1111122 
DISL,ioos:station:DISL:DISL:1,2019-04-05T20:30:00Z,30.2513,-88.0778,2.2,13.5,11111222 
DISL,ioos:station:DISL:DISL:1,2019-04-05T21:00:00Z,30.2513,-88.0778,2.198,13.28,1111122 
DISL,ioos:station:DISL:DISL:1,2019-04-05T21:30:00Z,30.2513,-88.0778,2.2,11.9,11111222 
DISL,ioos:station:DISL:DISL:1,2019-04-05T22:00:00Z,30.2513,-88.0778,2.172,11.79,1111122 
DISL,ioos:station:DISL:DISL:1,2019-04-05T22:30:00Z,30.2513,-88.0778,2.2,11.8,11111222 
DISL,ioos:station:DISL:DISL:1,2019-04-05T23:00:00Z,30.2513,-88.0778,2.17,11.94,1111122 
DISL,ioos:station:DISL:DISL:1,2019-04-05T23:30:00Z,30.2513,-88.0778,2.178,11.96,1111122 
DISL,ioos:station:DISL:DISL:1,2019-04-06T00:00:00Z,30.2513,-88.0778,2.2,12.2,11111222 
DISL,ioos:station:DISL:DISL:1,2019-04-06T00:30:00Z,30.2513,-88.0778,2.17,12.72,1111122 
DISL,ioos:station:DISL:DISL:1,2019-04-06T01:00:00Z,30.2513,-88.0778,2.2,13.2,11111222 
DISL,ioos:station:DISL:DISL:1,2019-04-06T01:30:00Z,30.2513,-88.0778,2.174,13.21,1111122 
DISL,ioos:station:DISL:DISL:1,2019-04-06T02:00:00Z,30.2513,-88.0778,2.2,13.2,11111222 
DISL,ioos:station:DISL:DISL:1,2019-04-06T02:30:00Z,30.2513,-88.0778,2.208,15.07,1111122 
DISL,ioos:station:DISL:DISL:1,2019-04-06T03:00:00Z,30.2513,-88.0778,2.2,16.7,11111222 
DISL,ioos:station:DISL:DISL:1,2019-04-06T03:30:00Z,30.2513,-88.0778,2.219,17.82,1111122 
DISL,ioos:station:DISL:DISL:1,2019-04-06T04:00:00Z,30.2513,-88.0778,2.2,18.1,11111222 
DISL,ioos:station:DISL:DISL:1,2019-04-06T04:30:00Z,30.2513,-88.0778,2.225,18.76,1111122 
DISL,ioos:station:DISL:DISL:1,2019-04-06T05:00:00Z,30.2513,-88.0778,2.2,20.7,11111222 
DISL,ioos:station:DISL:DISL:1,2019-04-06T05:30:00Z,30.2513,-88.0778,2.263,21.47,1111122 
DISL,ioos:station:DISL:DISL:1,2019-04-06T06:00:00Z,30.2513,-88.0778,2.3,23.3,11111222 
DISL,ioos:station:DISL:DISL:1,2019-04-06T06:30:00Z,30.2513,-88.0778,2.306,25.38,1111122 
DISL,ioos:station:DISL:DISL:1,2019-04-06T07:00:00Z,30.2513,-88.0778,2.3,26.7,11111222 
DISL,ioos:station:DISL:DISL:1,2019-04-06T07:30:00Z,30.2513,-88.0778,2.323,24.57,1111122 
DISL,ioos:station:DISL:DISL:1,2019-04-06T08:00:00Z,30.2513,-88.0778,2.3,16.4,11111222 
DISL,ioos:station:DISL:DISL:1,2019-04-06T08:30:00Z,30.2513,-88.0778,2.342,15.65,1111122 
DISL,ioos:station:DISL:DISL:1,2019-04-06T09:00:00Z,30.2513,-88.0778,2.3,14.9,11111222 
DISL,ioos:station:DISL:DISL:1,2019-04-06T09:30:00Z,30.2513,-88.0778,2.316,15.03,1111122 
DISL,ioos:station:DISL:DISL:1,2019-04-06T10:00:00Z,30.2513,-88.0778,2.3,14.0,11111222 
DISL,ioos:station:DISL:DISL:1,2019-04-06T10:30:00Z,30.2513,-88.0778,2.318,13.99,1111122 
DISL,ioos:station:DISL:DISL:1,2019-04-06T11:00:00Z,30.2513,-88.0778,2.3,14.5,11111222 
DISL,ioos:station:DISL:DISL:1,2019-04-06T11:30:00Z,30.2513,-88.0778,2.309,13.88,1111122 
DISL,ioos:station:DISL:DISL:1,2019-04-06T12:00:00Z,30.2513,-88.0778,2.3,13.8,11111222 
DISL,ioos:station:DISL:DISL:1,2019-04-06T12:30:00Z,30.2513,-88.0778,2.311,13.22,1111122 
DISL,ioos:station:DISL:DISL:1,2019-04-06T13:00:00Z,30.2513,-88.0778,2.3,13.1,11111222 
DISL,ioos:station:DISL:DISL:1,2019-04-06T13:30:00Z,30.2513,-88.0778,2.32,13.85,1111122 
DISL,ioos:station:DISL:DISL:1,2019-04-06T14:00:00Z,30.2513,-88.0778,2.3,13.4,11111222 
DISL,ioos:station:DISL:DISL:1,2019-04-06T14:30:00Z,30.2513,-88.0778,2.313,13.94,1111122 
DISL,ioos:station:DISL:DISL:1,2019-04-06T15:00:00Z,30.2513,-88.0778,2.3,13.5,11111222 
DISL,ioos:station:DISL:DISL:1,2019-04-06T15:30:00Z,30.2513,-88.0778,2.299,13.95,1111122 